Torna al catalogo

COSMOS 2251 DEB

AttivoLEO
NORAD 35959·DEBRIS·🇷🇺 Russia

Lanciato Jun 16, 1993 da Plesetsk Cosmodrome

Loading…

Prossimi Passaggi (prossime 24 ore)

TLE

AggiornatoSource: Space-Track

Epoca: Sep 13, 2026, 10:23 UTC

1 35959U 93036AUZ 26256.43323835  .00000152  00000-0  63198-4 0  9993
2 35959  74.0334 169.1284 0022589 189.0439 171.0309 14.34287075888663

Traccia COSMOS 2251 DEB in tempo reale con AllMySat

Download on the App Store